Location: ??????????
(54.4061°N, 22.6114°E)
Time: 00:18:59
(UTC+00:00)

STARLINK-51 - Pass Details

Date: 23 October 2019
Orbit: 549 x 551 km, 53.0° (Epoch: 21 November)

Event Time Altitude Azimuth Distance (km) Brightness Sun altitude
Rises 16:38:12 0° 272° (W) 2,719 9.2 -12.8°
Reaches altitude 10° 16:40:26 10° 270° (W) 1,825 7.8 -13.2°
Maximum altitude 16:44:34 71° 187° (S) 584 3.7 -13.8°
Enters shadow 16:47:03 23° 107° (ESE) 1,196 4.8 -14.1°
